Tracking 18840 objects as of 18-November-2017
HD Live streaming from Space Station
objects crossing your sky now

FENGYUN 1C DEB

Track FENGYUN 1C DEB now!
10-day predictions


NORAD ID: 32096
Int'l Code: 1999-025CQN
Perigee: 849.2 km
Apogee: 1,064.8 km
Inclination: 99.3 °
Period: 104.0 minutes
Semi major axis: 7328 km
RCS: 0.0045 m2 (small)
Launch date: May 10, 1999
Source: People's Republic of China (PRC)
Launch site: Taiyaun Space Center, China (TSC)

Note: This is SATELLITE DEBRIS
aabbcc
Your satellite tracking list
Your tracking list is empty




NASA's NSSDC Master Catalog

Two Line Element Set (TLE):
1 32096U 99025CQN 17320.07275250 +.00000583 +00000-0 +51870-3 0  9996
2 32096 099.3248 358.4620 0147110 127.8892 233.5671 13.83950767520201
Source of the keplerian elements: AFSPC